Location: Alafon
(8.4500°N, 4.2333°E)
Time: 16:40:42
(UTC+00:00)

Daily predictions for brighter satellites

Satellite Brightness Start Highest point End
(mag) Time Altitude Azimuth Time Altitude Azimuth Time Altitude Azimuth
Milstar 3 Cent rocket 3.9 18:21:02 10° NNW 18:24:15 18° NNE 18:27:45 10° ENE
Cosmos 2266 Rocket 3.9 18:25:48 10° S 18:31:46 67° E 18:37:46 10° N
Ariane H10 4.1 18:30:31 10° SSW 18:32:51 15° SSE 18:36:47 10° SE
NOAA 11 4.5 18:28:13 10° S 18:33:39 74° WSW 18:39:03 10° NNW
MOS 1 Rocket 4.2 18:29:44 10° NE 18:34:15 33° E 18:38:59 10° SSE
Cosmos 1939 Rocket 3.0 18:30:49 10° S 18:34:56 87° W 18:38:59 10° NNW
SL-24 R/B 4.3 18:34:21 10° NNE 18:39:26 74° E 18:43:51 10° S
Cosmos 1340 Rocket 2.8 18:36:16 10° N 18:40:13 86° W 18:44:09 10° S
Meteor 1-24 Rocket 3.9 18:35:13 10° SSE 18:40:37 50° E 18:46:13 10° NNE
CZ-2D R/B 3.3 18:39:11 10° S 18:43:02 83° W 18:46:52 10° NNW
USA 234 3.3 18:37:24 10° SE 18:43:58 86° SW 18:50:31 10° NW
Cosmos 2360 Rocket 3.1 18:40:15 10° SSE 18:44:47 25° ESE 18:49:20 10° NE
Cosmos 2082 4.3 18:41:50 10° N 18:47:00 38° ENE 18:51:48 12° SE
GPS 2-17 Rocket1 3.8 18:43:16 10° W 18:47:36 43° SSW 18:51:20 14° SE
Cosmos 2227 Rocket 2.2 18:44:03 10° NNW 18:49:42 88° ENE 18:55:20 10° SSE
H-2A R/B 4.4 18:47:36 10° SSW 18:50:24 12° S 18:52:17 10° SSE
DELTA 2 R/B (1) 4.3 18:45:19 10° WSW 18:50:46 58° NW 18:56:14 10° NE
FALCON 9 DEB 4.3 18:49:36 10° NW 18:52:49 40° SW 18:56:04 10° SSE
Cosmos 1626 2.0 18:49:48 10° S 18:53:27 62° E 18:57:06 10° NNE
Intelsat 5-1 Rocket 2.9 18:51:01 10° WNW 18:56:49 39° NNE 18:59:01 16° ENE
Cosmos 2219 4.2 18:52:22 10° NNW 18:57:43 47° WSW 19:03:05 10° S
Cosmos 1818 3.5 18:55:34 10° SSW 19:00:55 71° ESE 19:06:18 10° NNE
Cosmos 1553 Rocket 4.1 18:55:15 10° N 19:01:19 77° W 19:07:29 10° S
CZ-2C R/B 3.6 18:56:34 10° SSE 19:02:10 49° ENE 19:07:38 10° N
SL-16 R/B 2.7 18:57:46 10° SSW 19:03:21 63° WNW 19:08:57 10° N
ARGOS 4.0 19:01:08 18° SE 19:04:13 31° ENE 19:08:55 10° NNE
Hubble Space Telescope 0.7 19:00:22 10° WSW 19:04:29 88° NNW 19:08:33 10° ENE
Cosmos 1892 Rocket 3.9 19:04:34 10° SSW 19:08:51 66° W 19:13:08 10° N
S3M 4.0 19:02:30 10° N 19:08:54 85° E 19:15:17 10° S
Nadezhda 2 Rocket 4.4 19:09:34 10° S 19:15:41 66° E 19:21:52 10° NNE
USA 186 3.0 19:16:33 27° ENE 19:16:33 27° ENE 19:19:04 10° NNE
ATLAS 5 CENTAUR R/B 1.7 19:13:28 10° SSW 19:17:28 64° WNW 19:21:25 10° NNE
Meteor 2-14 Rocket 4.4 19:12:29 10° S 19:18:35 68° E 19:24:40 10° NNE
YAOGAN 1 4.2 19:14:48 10° SSW 19:18:41 33° W 19:22:34 10° NW
ARIANE 5 R/B 3.7 19:15:17 10° WSW 19:18:56 31° S 19:20:05 26° SSE
Meteor 2-21 4.4 19:13:19 10° S 19:19:30 77° E 19:25:41 10° N
Okean 1-7 Rocket 4.3 19:19:30 10° SSW 19:23:59 56° W 19:28:27 10° N
CZ-2C R/B 2.4 19:19:10 10° NNE 19:24:25 80° ESE 19:29:36 10° S
Orbus 7S 4.2 19:19:39 10° WNW 19:26:25 41° SW 19:27:34 31° S
Cosmos 1626 Rocket 3.6 19:27:04 39° SE 19:28:19 53° E 19:32:37 10° NNE
Orbus 7S 4.0 19:26:01 10° NW 19:28:27 34° NNE 19:28:54 32° NE
Cosmos 1898 Rocket 3.5 19:25:12 10° NNW 19:30:22 82° WSW 19:33:27 25° S
Cosmos 883 Rocket 4.4 19:24:31 10° N 19:30:45 75° E 19:35:18 20° S
Ariane Rocket 3.1 19:29:27 38° SE 19:31:02 52° ENE 19:35:58 10° N
Cosmos 1908 3.7 19:27:25 10° NNW 19:31:16 60° W 19:33:36 22° SSW
Cosmos 2058 Rocket 3.9 19:27:46 10° NNE 19:31:15 33° ENE 19:31:15 33° ENE
USA 215 3.3 19:26:22 10° NNE 19:32:53 80° NW 19:39:24 10° SW
GEOS 3 Rocket 3.7 19:29:43 10° NNE 19:35:04 80° WNW 19:40:22 10° SSW
Cosmos 1244 Rocket 4.4 19:29:14 10° S 19:35:22 88° E 19:41:30 10° N
Cosmos 1745 Rocket 4.5 19:35:40 36° E 19:35:53 36° E 19:41:25 10° NNE
IRS-1A Rocket 4.1 19:42:40 45° SE 19:44:23 71° ENE 19:49:51 10° N
Meteor 1-21 Rocket 4.3 19:43:51 47° SE 19:44:58 55° E 19:50:42 10° NNE
H-2A R/B 2.5 19:41:26 20° S 19:45:05 63° WSW 19:50:27 10° NNW
Spelda 30 4.0 19:45:35 10° WSW 19:48:43 45° S 19:48:47 45° S
BLOCK DM-SL R/B 3.9 19:33:29 10° W 19:49:05 53° SSW 19:50:23 44° SSE
Cosmos 2322 Rocket 4.4 19:46:10 10° SW 19:50:39 24° WNW 19:55:07 10° NNW
SL-08 ROCKET BODY 4.4 19:51:36 52° E 19:51:36 52° E 19:57:08 10° NNE
SJ 16-02 3.6 19:49:16 10° NW 19:52:40 22° W 19:55:51 11° SSW
MOS 1 4.2 19:52:10 58° SE 19:53:10 72° ENE 19:58:46 10° N
SJ-6B 3.7 19:58:17 42° N 19:58:17 42° N 20:00:57 10° N
BREEZE-M DEB (TANK) 3.3 19:51:31 10° SW 19:56:24 44° SW 19:56:24 44° SW
VEP-3 4.5 19:53:16 10° NW 19:57:48 22° N 20:03:07 10° NE
Cosmos 2228 4.4 19:54:04 10° NNW 19:58:04 36° W 19:59:59 24° SW
Cosmos 1300 4.3 19:59:05 10° N 20:01:00 28° N 20:01:00 28° N
Timation 1 Rocket 4.1 20:01:15 10° NNW 20:07:13 82° ENE 20:07:21 81° E
NOSS 3-1 (C) 4.2 20:02:30 10° NNW 20:11:11 82° ENE 20:13:32 55° SE
Cosmos 2322 3.7 20:13:37 66° SW 20:14:21 76° WNW 20:20:03 10° NNE
CZ-3A R/B 2.9 20:00:18 10° WSW 20:21:55 76° SSE 20:22:33 72° ESE
NOSS 3-3 (A) 4.2 20:17:49 10° SW 20:23:14 56° WNW 20:28:50 10° NNE
NOSS 3-3 (C) 4.2 20:17:54 10° SW 20:23:20 57° WNW 20:28:58 10° NNE
USA 229 DEB 3.8 20:18:00 10° NNW 20:25:40 89° ENE 20:26:10 80° SSE
USA 229 3.8 20:18:05 10° NNW 20:25:45 88° ENE 20:26:14 81° SSE
Cosmos 2219 Rocket 4.1 20:30:39 19° NNE 20:30:39 19° NNE 20:32:10 10° NNE
Cosmos 2360 Rocket 4.4 20:24:14 10° WSW 20:28:31 22° WNW 20:32:49 10° NNW
Cosmos 2285 Rocket 4.3 20:29:27 10° NNW 20:35:18 60° W 20:35:18 60° W
Cosmos 2333 Rocket 3.7 20:39:22 28° N 20:39:22 28° N 20:41:58 10° N
NOSS 3-1 (A) 4.1 20:27:47 10° NNW 20:36:27 77° ENE 20:36:35 77° ENE
Resurs 01 Rocket 4.4 20:45:41 13° N 20:45:41 13° N 20:46:09 10° N
Cosmos 2263 Rocket 3.3 20:36:56 10° NNW 20:40:18 38° NNW 20:40:18 38° NNW
Hubble Space Telescope 3.8 20:43:00 10° WNW 20:43:58 14° NW 20:43:58 14° NW
Milstar 3 Cent rocket 3.8 20:56:47 10° WNW 20:59:23 33° WNW 20:59:23 33° WNW
